Regional Weather Roundup
Issued by NWS State College, PA

Home | Current Version | Previous Version | Graphics & Text | Print | Product List | Glossary On
Versions: 1 2 3 4 5 6 7 8 9 10 11 12 13 14 15 16 17 18 19 20 21 22 23 24 25 26 27 28 29 30 31 32 33 34 35 36 37 38 39 40 41 42 43 44 45 46 47 48 49 50
000
ASUS41 KCTP 222103
RWRCTP

REGIONAL WEATHER ROUNDUP
NATIONAL WEATHER SERVICE STATE COLLEGE PA
500 PM EDT FRI MAY 22 2015

Note: "fair" indicates few or no clouds below 12,000 feet with no
significant weather and/or obstructions to visibility.

* = STATION THAT DOES NOT REPORT PRECIPITATION /E.G. RAIN...SNOW...ETC/
    THUNDER OR FOG.

PAZ002>004-007>009-013>016-020>023-029>032-222200-
WESTERN PENNSYLVANIA

CITY           SKY/WX    TMP DP  RH WIND       PRES   REMARKS
ERIE           SUNNY     56  30  37 NW18G28   30.22R
MEADVILLE      SUNNY     56  30  37 NW14G26   30.20R
FRANKLIN*      SUNNY     57  28  33 W12G24    30.20R
NEW CASTLE     FAIR      63  29  27 NW15G22   30.21R
BEAVER COUNTY  SUNNY     63  30  29 NW16G23   30.19R
BUTLER*        SUNNY     64  28  25 NW15G24   30.19R
PITTSBURGH INT MOSUNNY   67  32  27 N22G31    30.16R
PITTSBURGH     MOSUNNY   66  31  27 NW9G25    30.14R
INDIANA*       MOSUNNY   66  36  32 NW15G24   30.16R
LATROBE        PTSUNNY   64  46  52 W12G25    30.15R
WASHINGTON CO* MOSUNNY   64  46  52 W15G23    30.19R
$$

PAZ004>006-010>012-017>019-024>028-033>037-041-042-045-046-049>053-222200-
CENTRAL PENNSYLVANIA

CITY           SKY/WX    TMP DP  RH WIND       PRES   REMARKS
BRADFORD       MOSUNNY   57  28  33 NW15G28   30.12R
DUBOIS         SUNNY     62  25  24 W18G28    30.11R
CLEARFIELD     SUNNY     63  25  23 NW21G30   30.10R
JOHNSTOWN      PTSUNNY   58  42  55 NW16G28   30.11R
ALTOONA        MOSUNNY   62  41  46 W17G29    30.09S
STATE COLLEGE  MOSUNNY   66  32  28 S14G30    30.06R
WILLIAMSPORT   SUNNY     72  24  16 NW18G32   29.98R
SELINSGROVE    PTSUNNY   68  42  38 VRB7G16   30.02S
FT INDIANTOWN  SUNNY     72  37  27 W14G30    30.02R
CAPITAL CITY   MOSUNNY   72  40  31 NW17G30   30.03R
HARRISBURG     MOSUNNY   72  43  35 W17       30.02R
YORK           PTSUNNY   69  46  43 W10G21    30.05R
$$

PAZ038>040-043-044-047-048-054-055-060>062-067>071-222200-
EASTERN PENNSYLVANIA

CITY           SKY/WX    TMP DP  RH WIND       PRES   REMARKS
SCRANTON       PTSUNNY   68  32  26 NW17      29.97S
MOUNT POCONO   CLOUDY    59  43  55 W10       30.00R
ALLENTOWN      RAIN      58  50  75 W14G22    30.03R
QUAKERTOWN*    MOCLDY    72  39  30 W17G24    30.00R
READING        MOSUNNY   73  37  27 W18G33    29.99R
LANCASTER      SUNNY     72  41  32 W24G35    30.01R
COATESVILLE    PTCLDY    70  39  32 W24       30.02S
POTTSTOWN      MOSUNNY   72  38  29 W16G25    30.00S
BLUE BELL      SUNNY     73  39  29 W13G25    29.98R
DOYLESTOWN     MOSUNNY   71  39  31 W13G24    29.97S
WILLOW GROVE   NOT AVBL
NORTH PHILA    SUNNY     76  36  23 W23G35    29.99R
PHILADELPHIA   PTSUNNY   76  39  26 W22G29    30.00S
$$



USA.gov is the U.S. government's official web portal to all federal, state and local government web resources and services.